Regional Weather Roundup
Issued by NWS

Home | Current Version | Previous Version | Graphics & Text | Print | Product List | Glossary On
Versions: 1 2 3 4 5 6 7 8 9 10 11 12 13 14 15 16 17 18 19 20 21 22 23 24 25 26 27
000
ASUS45 KTFX 211510
RWRMT
MONTANA REGIONAL WEATHER ROUNDUP
NATIONAL WEATHER SERVICE GREAT FALLS MT
900 AM MDT THU SEP 21 2017

NOTE: "FAIR" INDICATES FEW OR NO CLOUDS BELOW 12000 FEET WITH NO
SIGNIFICANT WEATHER AND/OR OBSTRUCTIONS TO VISIBILITY.

MTZ001>007-043-211600-
WEST OF THE DIVIDE

CITY           SKY/WX    TMP DP  RH WIND       PRES   REMARKS
KALISPELL      PTSUNNY   38  38 100 CALM      29.83R
MISSOULA       CLOUDY    41  40  96 CALM      29.84R
BUTTE          CLOUDY    33  32  96 CALM      29.83R
MULLAN PASS    FOG       30  28  92 CALM      29.81R VSB<1/4
ANACONDA         N/A     34  28  80 CALM      29.82R
DEER LODGE       N/A     34  30  86 CALM      29.84S
EUREKA           N/A     43  37  81 CALM      29.82R
HAMILTON         N/A     37  32  81 S6        29.83S
LIBBY            N/A     37  34  87 CALM      29.84R
PLAINS           N/A     42  37  82 CALM      29.87R
$$

MTZ008-052>055-211600-
SOUTHWEST MONTANA

CITY           SKY/WX    TMP DP  RH WIND       PRES   REMARKS
BOZEMAN        CLOUDY    43  38  82 S3        29.82R
DILLON         CLOUDY    38  33  82 SW3       29.81R
W YELLOWSTONE  LGT SNOW  32  32 100 CALM      29.80S VSB 1
ENNIS          CLOUDY    39  36  87 N5        29.86R
THREE FORKS      N/A     42  34  73 CALM      29.83R
TWIN BRIDGES     N/A     39  33  79 CALM      29.83R
$$

MTZ009-010-012-014-046-048-049-054-211600-
EAST SLOPES AND CENTRAL MONTANA

CITY           SKY/WX    TMP DP  RH WIND       PRES   REMARKS
CUT BANK       CLOUDY    32  30  92 N6        29.80R WCI  26
GREAT FALLS    CLOUDY    41  30  65 S3        29.79S
MALMSTROM AFB  CLOUDY    41  32  72 SW5       29.80R
HELENA         CLOUDY    42  34  73 CALM      29.81R
BOWMANS CRNR     N/A     38  30  74 SW7       29.77R
CHOTEAU          N/A     39  32  75 CALM      29.81R
FAIRFIELD        N/A     38  31  75 E3        29.79R
POWER            N/A     38  33  83 CALM      29.79R
RAYNESFORD       N/A     41  29  60 NE3       29.80R
ULM              N/A     41  32  70 CALM      29.79R
$$

MTZ011-013-016-021-045-047-050-051-211600-
NORTH CENTRAL MONTANA

CITY           SKY/WX    TMP DP  RH WIND       PRES   REMARKS
HAVRE          PTSUNNY   41  35  79 W7        29.80R
LEWISTOWN      MOSUNNY   44  28  53 W5        29.79R
N BAR RANCH      N/A     45  27  49 NW7       29.81R
CHINOOK          N/A     43  36  75 W8        29.79R
DENTON           N/A     43  31  62 W7        29.76R
GEYSER         PTSUNNY   42  29  58 W7        29.79R
GRASS RANGE      N/A     46  29  52 W13       29.76R
JUDITH GAP       N/A     42  29  58 NW14      29.78R
WINIFRED         N/A     43  32  63 W6        29.78R
$$

MTZ017>020-022>027-061-062-211600-
NORTHEAST MONTANA

CITY           SKY/WX    TMP DP  RH WIND       PRES   REMARKS
GLASGOW        CLOUDY    46  36  68 NW6       29.73R
JORDAN           N/A     50  37  61 NW9       29.75R
SIDNEY         LGT RAIN  50  45  83 CALM      29.71
WOLF POINT     CLOUDY    51  40  65 W7        29.72R
MALTA          SUNNY     45  34  65 W13G18    29.75R
POPLAR           N/A     50  39  66 W7        29.72R
SCOBEY           N/A     45  34  65 S2        29.72R
$$

MTZ028>42-056>058-211600-
SOUTHCENTRAL AND SOUTHEAST MONTANA

CITY           SKY/WX    TMP DP  RH WIND       PRES   REMARKS
BAKER          CLOUDY    58  37  45 N17       29.73R
BILLINGS       CLOUDY    46  43  89 SW5       29.80R
LIVINGSTON     LGT RAIN  43  39  86 NW3       29.80R
MILES CITY     CLOUDY    49  41  74 NW13      29.73R
BIG TIMBER     PTSUNNY   45  39  81 SE5       29.83R
EKALAKA          N/A     54  37  52 N8        29.75R
HARLOWTON      PTSUNNY   44  29  56 MISG      29.79R
LAUREL           N/A     46  43  87 NE7       29.81R
$$

REGIONAL REPORTS...DAKOTAS

CITY           SKY/WX    TMP DP  RH WIND       PRES   REMARKS
WILLISTON      CLOUDY    51  42  71 CALM      29.70S
MINOT          CLOUDY    58  45  62 NW5       29.69R
DICKINSON      CLOUDY    59  41  51 NW12      29.67R
BEACH          PTSUNNY   54  39  58 N12G18    29.73S
CROSBY           N/A     50  41  71 SW9       29.70R
BISMARCK       MOSUNNY   65  48  54 S16       29.69F
GRAND FORKS    MOSUNNY   64  51  62 S20G28    29.81S
FARGO          SUNNY     63  49  60 S16G24    29.84F
BUFFALO SD       N/A     62  36  37 N20       29.61R
RAPID CITY     SUNNY     64  41  42 S14       29.66S
$$

REGIONAL REPORTS...WYOMING/IDAHO/WASHINGTON

CITY           SKY/WX    TMP DP  RH WIND       PRES   REMARKS
GILLETTE       SUNNY     52  39  61 N12       29.74R
SHERIDAN       CLOUDY    53  42  66 NW13      29.78R
BUFFALO WY     SUNNY     50  38  63 N15       29.79R
CODY           LGT RAIN  42  41  96 N8        29.80R
IDAHO FALLS    LGT RAIN  39  38  96 SW8       29.82R
SALMON         CLOUDY    39  37  92 CALM      29.85R
BOISE          CLOUDY    47  45  93 SW3       29.82S
SPOKANE        RAIN      42  42 100 SE3       29.85R FOG
$$

REGIONAL REPORTS...ALBERTA

CITY           SKY/WX    TMP DP  RH WIND       PRES   REMARKS
EDMONTON       LGT RAIN  37  36  93 N12G20    29.77R WCI  30
CALGARY        LGT RAIN  36  34  93 NW16G23   29.79R FOG     WCI  26
LETHBRIDGE     PTSUNNY   43  34  70 SW3G23    29.80R
MEDICINE HAT   PTSUNNY   41  34  75 SW10      29.77R
$$

REGIONAL REPORTS...SASKATCHEWAN

CITY           SKY/WX    TMP DP  RH WIND       PRES   REMARKS
SWIFT CURRENT  CLOUDY    39  34  81 W16       29.72R WCI  30
REGINA         PTSUNNY   41  34  75 NW10      29.70R
SASKATOON      MOSUNNY   39  37  93 SW10      29.67R
$$




USA.gov is the U.S. government's official web portal to all federal, state and local government web resources and services.